Flag for Canada Weather past 2 weeks in Dieppe, New Brunswick, Canada

Now
34 °F

Partly sunny.


Feels Like: 26 °F
Forecast: 17 / 36 °F
Wind: 9 mph from West

Location: Moncton

Current Time: Mar 4, 2015 at 11:47:06 AM

Latest Report: Mar 4, 2015 at 11:00 AM


Visibility: 15 mi

Pressure: 29.48 "Hg

Humidity: 81%

Dew point: 28 °F

Location of DieppeLocation

Historic Weather in Dieppe — Graph

°F

Dieppe temperature yesterday

Maximum temperature yesterday: 19 °F (at 12:00 AM)
Minimum temperature yesterday: 3 °F (at 6:00 AM)
Average temperature yesterday: 11 °F

Past Weeks' High & Low Weather Summary

 TemperatureHumidityPressure
High34 °F (Feb 22, 6:00 AM)100% (Feb 22, 9:00 AM)30.62 "Hg (Feb 22, 9:00 AM)
Low-13 °F (Feb 24, 5:00 AM)35% (Feb 21, 3:00 PM)29.26 "Hg (Feb 20, 4:46 AM)
Average14 °F70%29.97 "Hg
* Reported Feb 17 11:00 AM — Mar 4 11:00 AM, Dieppe, Weather by CustomWeather, © 2015

Note: Actual official high and low records may vary slightly from our data, if they occured in-between our weather recording intervals... More about our weather records

Advertising

Dieppe weather history for previous 24 hours

 ConditionsComfort  
Time TempWeatherWind HumidityBarometerVisibility
11:00 AM
Wed, Mar 4
34 °FPartly sunny.9 mph81%29.48 "Hg15 mi
10:00 AM28 °FSnow flurries. Overcast.6 mph86%29.50 "Hg8 mi
9:00 AM27 °FSnow flurries. Overcast.9 mph86%29.52 "Hg12 mi
8:00 AM25 °FCloudy.7 mph86%29.55 "Hg15 mi
7:52 AM25 °FMostly cloudy.10 mph86%29.55 "Hg15 mi
7:00 AM21 °FLight snow. Mostly cloudy.12 mph93%29.58 "Hg15 mi
6:00 AM21 °FLight snow. Mostly cloudy.14 mph80%29.63 "Hg15 mi
5:00 AM19 °FLight snow. Mostly cloudy.13 mph79%29.67 "Hg4 mi
4:00 AM16 °FLight snow. Overcast.12 mph86%29.76 "Hg3 mi
3:00 AM18 °FLight snow. Ice fog.13 mph79%29.86 "Hg1 mi
2:48 AM18 °FLight snow. Ice fog.14 mph79%29.87 "Hg1 mi
2:00 AM14 °FMostly cloudy.9 mph67%29.95 "Hg15 mi
1:00 AM12 °FMostly cloudy.8 mph52%29.98 "Hg15 mi
12:00 AM10 °FPassing clouds.6 mph52%30.03 "Hg15 mi
11:00 PM
Tue, Mar 3
10 °FPartly cloudy.5 mph47%30.08 "Hg15 mi
10:00 PM9 °FPassing clouds.8 mph56%30.10 "Hg15 mi
9:00 PM9 °FPassing clouds.8 mph47%30.11 "Hg15 mi
8:00 PM10 °FPassing clouds.7 mph44%30.14 "Hg15 mi
7:00 PM10 °FPassing clouds.10 mph47%30.14 "Hg15 mi
6:00 PM14 °FPassing clouds.12 mph41%30.14 "Hg15 mi
5:00 PM18 °FLow level haze.17 mph35%30.15 "Hg15 mi
4:00 PM18 °FLow level haze.20 mph35%30.13 "Hg15 mi
3:00 PM18 °FLow level haze.21 mph35%30.13 "Hg15 mi
2:00 PM16 °FSunny.20 mph41%30.12 "Hg15 mi
1:00 PM14 °FSunny.17 mph41%30.13 "Hg15 mi
12:00 PM12 °FSunny.22 mph44%30.12 "Hg15 mi
11:00 AM10 °FSunny.20 mph44%30.11 "Hg15 mi
Weather by CustomWeather, © 2015

See weather overviewHow to use our weather pages